Location: Castillon
(43.0896°N, 0.2156°E)
Time: 15:29:57
(UTC+00:00)

Cosmos 292 Rocket - Pass Details

Date: 16 June 2021
Orbit: 674 x 693 km, 74.0° (Epoch: 03 August)

Event Time Altitude Azimuth Distance (km) Brightness Sun altitude
Rises 20:41:56 0° 196° (SSW) 3,050 6.8 -9.4°
Reaches altitude 10° 20:44:14 10° 195° (SSW) 2,136 6.0 -9.7°
Maximum altitude 20:49:03 81° 109° (ESE) 702 3.7 -10.4°
Drops below altitude 10° 20:53:52 10° 22° (NNE) 2,142 6.7 -11.0°
Sets 20:56:11 0° 22° (NNE) 3,059 7.5 -11.2°
